Weather History for Ogden Hill AFB, UT

Change the Weather History Date:

Friday, August 23, 2013

  Actual Average Record
Temperature  
Mean Temperature 71 °F -  
Max Temperature 80 °F 82 °F 95 °F (2006)
Min Temperature 64 °F 60 °F 52 °F (2010)
Cooling Degree Days 6    
Growing Degree Days 21 (Base 50)    
Moisture  
Dew Point 54 °F    
Average Humidity 58    
Maximum Humidity 83    
Minimum Humidity 35    
Precipitation  
Precipitation 0.00 in - - ()
Sea Level Pressure  
Sea Level Pressure 29.95 in    
Wind  
Wind Speed 17 mph (SSE)    
Max Wind Speed 26 mph    
Max Gust Speed 40 mph    
Visibility 10 miles    
Events Rain , Thunderstorm    
Averages and records for this station are not official NWS values.
T = Trace of Precipitation, MM = Missing Value Source: NWS Daily Summary

Daily Weather History Graph

Daily Weather History Graph

Search for Another Location

Airport:

Trip Planner

Search our weather history database for the weather conditions in past years. The results will help you decide how hot, cold, wet, or windy it might be!

Date:

Astronomy

Aug. 23, 2013 Rise Set
Actual Time 6:45 AM MDT 8:14 PM MDT
Civil Twilight 6:16 AM MDT 8:43 PM MDT
Nautical Twilight 5:42 AM MDT 9:17 PM MDT
Astronomical Twilight 5:05 AM MDT 9:54 PM MDT
Moon 9:32 PM MDT (8/23) 9:47 AM MDT (8/23)
Length of Visible Light 14h 26m
Length of Day
13h 28m
Waning Gibbous, 91% of the Moon is Illuminated
Aug 23
Waning Gibbous
Aug 28
Last Quarter
Sep 5
New
Sep 12
First Quarter
Sep 19
Full

Hourly Weather History & Observations

Time (MDT) Temp. Dew Point Humidity Pressure Visibility Wind Dir Wind Speed Gust Speed Precip Events Conditions
12:58 AM 75.4 °F 45.9 °F 35% 29.87 in 10.0 mi ESE 20.7 mph 24.2 mph N/A   Mostly Cloudy
1:11 AM 75.2 °F 46.4 °F 36% 30.08 in 10.0 mi SSE 16.1 mph 25.3 mph N/A   Scattered Clouds
1:58 AM 73.0 °F 46.9 °F 39% 29.87 in 10.0 mi ESE 19.6 mph 26.5 mph N/A   Clear
2:58 AM 72.5 °F 47.7 °F 41% 29.86 in 10.0 mi ESE 12.7 mph - N/A   Overcast
3:58 AM 69.6 °F 49.3 °F 48% 29.86 in 10.0 mi ESE 16.1 mph - N/A   Clear
4:58 AM 67.8 °F 50.0 °F 53% 30.05 in 10.0 mi ESE 15.0 mph - N/A   Mostly Cloudy
5:58 AM 66.4 °F 50.0 °F 56% 30.03 in 10.0 mi ESE 15.0 mph - N/A   Clear
6:58 AM 65.3 °F 50.2 °F 58% 29.86 in 10.0 mi ESE 16.1 mph - N/A   Mostly Cloudy
7:58 AM 65.5 °F 50.7 °F 59% 29.88 in 10.0 mi ESE 18.4 mph - N/A   Mostly Cloudy
8:58 AM 68.9 °F 50.7 °F 52% 29.89 in 10.0 mi ESE 16.1 mph - N/A   Mostly Cloudy
9:58 AM 71.6 °F 51.1 °F 48% 29.89 in 10.0 mi ESE 13.8 mph - N/A   Mostly Cloudy
10:58 AM 78.3 °F 52.2 °F 40% 29.88 in 10.0 mi South 23.0 mph 32.2 mph N/A   Overcast
11:58 AM 76.3 °F 52.9 °F 44% 29.90 in 10.0 mi South 26.5 mph 40.3 mph N/A   Scattered Clouds
12:58 PM 73.4 °F 54.7 °F 52% 29.92 in 10.0 mi South 26.5 mph 39.1 mph N/A   Mostly Cloudy
1:58 PM 71.4 °F 55.2 °F 57% 29.92 in 10.0 mi South 17.3 mph - N/A   Overcast
2:33 PM 71.6 °F 57.2 °F 60% 30.08 in 10.0 mi South 18.4 mph - N/A Thunderstorm Overcast
2:58 PM 70.2 °F 57.6 °F 64% 29.91 in 10.0 mi South 24.2 mph - N/A   Mostly Cloudy
3:13 PM 68.0 °F 57.2 °F 68% 30.07 in 10.0 mi South 24.2 mph 29.9 mph N/A Rain Light Rain
3:18 PM 66.2 °F 59.0 °F 78% 30.08 in 10.0 mi South 23.0 mph 29.9 mph N/A Rain Light Rain
3:28 PM 66.2 °F 59.0 °F 78% 30.07 in 10.0 mi South 19.6 mph 25.3 mph N/A Rain Light Rain
3:33 PM 64.4 °F 59.0 °F 83% 30.07 in 10.0 mi South 20.7 mph 27.6 mph N/A Rain Light Rain
3:38 PM 66.2 °F 59.0 °F 78% 30.06 in 10.0 mi South 24.2 mph 28.8 mph N/A Rain Light Rain
3:58 PM 66.0 °F 58.6 °F 77% 29.90 in 10.0 mi South 24.2 mph 29.9 mph 0.00 in Rain Light Rain
4:04 PM 66.2 °F 57.2 °F 73% 30.05 in 10.0 mi South 19.6 mph - N/A   Mostly Cloudy
4:09 PM 68.0 °F 57.2 °F 68% 30.05 in 10.0 mi South 17.3 mph - N/A   Mostly Cloudy
4:58 PM 71.1 °F 55.6 °F 58% 29.87 in 10.0 mi South 18.4 mph 25.3 mph 0.00 in   Mostly Cloudy
5:58 PM 69.8 °F 55.0 °F 59% 29.85 in 10.0 mi SE 4.6 mph - N/A   Scattered Clouds
6:58 PM 69.6 °F 55.0 °F 60% 29.85 in 10.0 mi SSW 11.5 mph - N/A   Partly Cloudy
7:58 PM 69.4 °F 54.5 °F 59% 29.86 in 10.0 mi South 9.2 mph - N/A   Overcast
8:58 PM 69.4 °F 54.5 °F 59% 29.86 in 10.0 mi SW 4.6 mph - N/A   Overcast
9:58 PM 68.4 °F 55.0 °F 62% 29.87 in 10.0 mi SE 8.1 mph - N/A   Overcast
10:48 PM 68.0 °F 53.6 °F 60% 30.03 in 10.0 mi ESE 9.2 mph - N/A   Overcast
10:58 PM 67.8 °F 54.3 °F 62% 29.85 in 10.0 mi ESE 11.5 mph - N/A   Overcast
11:53 PM 68.0 °F 53.6 °F 60% 30.05 in 10.0 mi East 6.9 mph - N/A   Overcast
11:58 PM 67.8 °F 53.2 °F 60% 29.89 in 10.0 mi East 8.1 mph - N/A   Overcast